[[{"header":{"parameterUnit":"m.s-1","parameterCategory":1,"la1":30.2991,"la2":30.254,"lo1":-89.0895,"lo2":-89.0444,"dy":0.0017,"dx":0.0017,"nx":28,"ny":28,"refTime":"2023-09-19T21:00:00:Z","depth":0,"parameterNumber":2,"parameterNumberName":"U-component_of_WINDS"},"data":[0,0,0,0,0,0,0,0,0,0,0,0,0,0,0,0,0,0,0,0,0,0,0,0,0,0,0,0,0,0,0,0,0,0,0,0,0,0,0,0,0,0,0,0,0,0,0,0,0,0,0,0,0,0,0,0,0,0,-3.4357,-3.4357,0,-3.4429,-3.443,-3.443,-3.4419,-3.4418,-3.4417,-3.4416,-3.4486,-3.4489,-3.4492,0,0,0,0,0,0,0,0,0,0,0,0,0,-3.4207,-3.421,-3.4356,-3.4357,-3.4358,-3.4429,-3.443,-3.4431,-3.442,-3.4418,-3.4417,-3.4415,-3.4485,-3.4488,-3.4492,0,0,0,0,0,0,0,0,0,0,0,0,0,-3.4275,-3.4211,-3.4356,-3.4361,-3.4363,-3.4429,-3.443,-3.4431,-3.442,-3.4418,-3.4416,-3.4415,-3.4484,-3.4488,-3.4492,-3.4557,0,0,-3.4506,-3.4508,0,0,0,0,0,0,0,0,-3.4271,-3.428,-3.436,-3.4361,-3.4363,-3.4413,-3.4403,-3.4473,-3.442,-3.4398,-3.4416,-3.4414,-3.4463,-3.4469,-3.4486,-3.456,-3.4563,-3.4506,-3.4509,-3.4511,-3.4512,0,0,0,0,0,0,0,-3.4266,-3.4277,-3.4385,-3.4361,-3.4363,-3.4359,-3.4367,-3.4416,-3.444,-3.44,-3.4399,-3.4408,-3.4463,-3.4482,-3.4488,-3.4564,-3.4506,-3.451,-3.4513,-3.4515,-3.4697,-3.4699,0,0,0,0,0,0,-3.4261,-3.4273,-3.4383,-3.4387,-3.4311,-3.4364,-3.4372,-3.4399,-3.4439,-3.4444,-3.441,-3.4407,-3.4475,-3.4483,-3.449,-3.457,-3.4511,-3.4515,-3.4518,-3.4694,-3.4697,-3.4699,0,0,0,0,0,0,-3.4257,-3.427,-3.438,-3.433,-3.4344,-3.4368,-3.4398,-3.4401,-3.442,-3.4447,-3.445,-3.4425,-3.4474,-3.4484,-3.4541,-3.4572,-3.4517,-3.4521,-3.4692,-3.4695,-3.4698,-3.4728,0,0,0,0,0,0,-3.4253,-3.4269,-3.4294,-3.4331,-3.4347,-3.443,-3.44,-3.4404,-3.4428,-3.4426,-3.4462,-3.4466,-3.4473,-3.4535,-3.4546,-3.4577,-3.4525,-3.4689,-3.4693,-3.4697,-3.4724,-3.4731,-3.4738,0,0,0,0,0,-3.4248,-3.4298,-3.4295,-3.4309,-3.4378,-3.4431,-3.444,-3.4449,-3.4431,-3.4456,-3.4474,-3.4465,-3.4567,-3.454,-3.4553,-3.4586,-3.4687,-3.4692,-3.4697,-3.4721,-3.473,-3.4738,0,0,0,0,0,0,-3.4261,-3.4303,-3.43,-3.4364,-3.4395,-3.443,-3.4461,-3.4458,-3.4494,-3.449,-3.4498,-3.4507,-3.4565,-3.4581,-3.4551,-3.4652,-3.4625,-3.4632,-3.4638,-3.4647,-3.4654,-3.4648,-3.4529,0,0,0,0,0,-3.4273,-3.4313,-3.4347,-3.44,-3.4416,-3.4436,-3.4459,-3.4464,-3.4496,-3.4508,-3.453,-3.456,-3.4599,-3.4624,-3.4662,-3.4727,-3.4735,-3.4756,-3.4763,-3.4769,-3.4775,-3.4812,-3.4822,-3.4715,-3.4715,-3.4715,0,0,-3.4294,-3.4322,-3.4347,-3.4403,-3.4427,-3.4469,-3.4447,-3.4491,-3.4522,-3.4514,-3.457,-3.4588,-3.4622,-3.4684,-3.4712,-3.4699,-3.4807,-3.4775,-3.4779,-3.4782,-3.4818,-3.4828,-3.4837,-3.4718,-3.4718,-3.4717,0,0,-3.4355,-3.4381,-3.4428,-3.4454,-3.4493,-3.4507,-3.4518,-3.4555,-3.4567,-3.4623,-3.4619,-3.4656,-3.4723,-3.4748,-3.477,-3.4846,-3.4839,-3.4858,-3.4893,-3.493,-3.4938,-3.4946,-3.4973,-3.4983,-3.4864,-3.4864,-3.4864,0,-3.4377,-3.4441,-3.4453,-3.4499,-3.4524,-3.4523,-3.4571,-3.4595,-3.4643,-3.466,-3.4646,-3.4732,-3.4755,-3.4824,-3.4843,-3.486,-3.4874,-3.4852,-3.4936,-3.4944,-3.4951,-3.4977,-3.4988,-3.4866,-3.4866,-3.4865,-3.4865,0,-3.4466,-3.4511,-3.4545,-3.4594,-3.4623,-3.467,-3.4689,-3.4718,-3.4721,-3.4737,-3.4796,-3.4824,-3.4868,-3.4885,-3.4888,-3.4956,-3.4947,-3.4934,-3.4907,-3.4963,-3.4988,-3.4998,-3.4869,-3.4868,-3.4867,-3.4867,0,0,-3.4534,-3.4593,-3.4605,-3.4628,-3.4672,-3.4706,-3.4755,-3.48,-3.4824,-3.4859,-3.4899,-3.4958,-3.4948,-3.4973,-3.4979,-3.5011,-3.5071,-3.4995,-3.4996,-3.5008,-3.5148,-3.5156,-3.5168,-3.5068,-3.507,-3.5071,-3.5145,0,-3.46,-3.4685,-3.4699,-3.4774,-3.4816,-3.4817,-3.4859,-3.4891,-3.4908,-3.4945,-3.4964,-3.5006,-3.4989,-3.5004,-3.5037,-3.5056,-3.5099,-3.5051,-3.5105,-3.5106,-3.5095,-3.5181,-3.5189,-3.5257,-3.5155,-3.5157,-3.5158,0,-3.4686,-3.4726,-3.4806,-3.4847,-3.4865,-3.4902,-3.4947,-3.4983,-3.5019,-3.503,-3.506,-3.5063,-3.5113,-3.5086,-3.5155,-3.5123,-3.5146,-3.516,-3.5162,-3.5166,-3.5134,-3.5187,-3.5279,-3.5289,-3.5173,-3.5172,-3.5171,0,-3.4728,-3.4801,-3.4859,-3.4879,-3.4928,-3.4955,-3.4977,-3.5012,-3.5039,-3.5078,-3.5096,-3.5139,-3.5163,-3.5197,-3.5212,-3.519,-3.5281,-3.5254,-3.529,-3.529,-3.5307,-3.5306,-3.5404,-3.5324,-3.5324,-3.5324,-3.5324,0,-3.4799,-3.4848,-3.4879,-3.4914,-3.497,-3.4986,-3.504,-3.5061,-3.5093,-3.5133,-3.5136,-3.5173,-3.5191,-3.5231,-3.5244,-3.53,-3.5311,-3.532,-3.5323,-3.5319,-3.5318,-3.5333,-3.5328,-3.5327,-3.5326,-3.5326,-3.5325,0,-3.4854,-3.4877,-3.494,-3.4983,-3.4996,-3.5034,-3.5071,-3.5106,-3.5124,-3.5174,-3.5187,-3.5216,-3.5263,-3.5283,-3.534,-3.5349,-3.5414,-3.5413,-3.5401,-3.5402,-3.5437,-3.5433,-3.5548,-3.5564,-3.5474,-3.5475,-3.5476,0,-3.4896,-3.4935,-3.4983,-3.5011,-3.5034,-3.5078,-3.5107,-3.5126,-3.5156,-3.5203,-3.5232,-3.5281,-3.532,-3.5396,-3.5421,-3.5466,-3.5466,-3.5503,-3.5472,-3.5469,-3.5466,-3.5463,-3.5468,-3.5508,-3.5509,-3.551,-3.551,0,-3.497,-3.4981,-3.5023,-3.5071,-3.5106,-3.5143,-3.518,-3.5202,-3.5227,-3.526,-3.531,-3.5341,-3.5402,-3.545,-3.5497,-3.5519,-3.5519,-3.5521,-3.5531,-3.5527,-3.5519,-3.5524,-3.5416,-3.5517,-3.5516,-3.5516,-3.5515,-3.5515,-3.502,-3.5055,-3.5095,-3.5143,-3.5174,-3.5209,-3.5244,-3.5269,-3.5311,-3.5363,-3.5372,-3.5425,-3.5464,-3.5528,-3.5552,-3.5594,-3.5585,-3.56,-3.5604,-3.5607,-3.5609,-3.5514,-3.5603,-3.5603,-3.5603,-3.5603,-3.5603,0,-3.5093,-3.5121,-3.5165,-3.5218,-3.5256,-3.5255,-3.5297,-3.5328,-3.5376,-3.5413,-3.5453,-3.5511,-3.5559,-3.559,-3.5638,-3.5666,-3.5668,-3.5678,-3.5675,-3.5681,-3.5615,-3.5601,-3.5677,-3.5677,-3.5677,-3.5676,-3.5676,-3.5676,-3.5136,-3.5195,-3.5211,-3.5286,-3.5313,-3.5367,-3.5391,-3.5424,-3.5454,-3.552,-3.556,-3.5581,-3.5616,-3.5667,-3.5712,-3.572,-3.5737,-3.5748,-3.5755,-3.5693,-3.5685,-3.5678,-3.5664,-3.5752,-3.5752,-3.5817,-3.5818,-3.5818]},{"header":{"parameterUnit":"m.s-1","parameterCategory":1,"la1":30.2991,"la2":30.254,"lo1":-89.0895,"lo2":-89.0444,"dy":0.0017,"dx":0.0017,"nx":28,"ny":28,"refTime":"2023-09-19T21:00:00:Z","depth":0,"parameterNumber":3,"parameterNumberName":"V-component_of_WINDS"},"data":[0,0,0,0,0,0,0,0,0,0,0,0,0,0,0,0,0,0,0,0,0,0,0,0,0,0,0,0,0,0,0,0,0,0,0,0,0,0,0,0,0,0,0,0,0,0,0,0,0,0,0,0,0,0,0,0,0,0,-0.5288,-0.529,0,-0.5476,-0.5478,-0.548,-0.559,-0.5591,-0.5591,-0.5592,-0.5783,-0.5788,-0.5792,0,0,0,0,0,0,0,0,0,0,0,0,0,-0.502,-0.5025,-0.5287,-0.529,-0.5292,-0.5476,-0.5478,-0.5481,-0.559,-0.5591,-0.5591,-0.5592,-0.5782,-0.5787,-0.5793,0,0,0,0,0,0,0,0,0,0,0,0,0,-0.5165,-0.5026,-0.5287,-0.5369,-0.5378,-0.5475,-0.5478,-0.5482,-0.559,-0.5591,-0.5592,-0.5592,-0.578,-0.5787,-0.5794,-0.5823,0,0,-0.5815,-0.5818,0,0,0,0,0,0,0,0,-0.5157,-0.5175,-0.5354,-0.5363,-0.5374,-0.551,-0.5455,-0.5596,-0.559,-0.551,-0.5592,-0.5592,-0.5692,-0.5706,-0.574,-0.5832,-0.5841,-0.5816,-0.582,-0.5823,-0.5825,0,0,0,0,0,0,0,-0.5147,-0.5167,-0.5362,-0.5357,-0.5369,-0.5396,-0.5417,-0.5482,-0.5595,-0.5517,-0.5525,-0.5546,-0.5697,-0.5733,-0.5745,-0.5843,-0.5815,-0.5822,-0.5826,-0.5829,-0.5969,-0.5968,0,0,0,0,0,0,-0.5124,-0.5158,-0.5356,-0.5368,-0.5265,-0.54,-0.5424,-0.5466,-0.5594,-0.5614,-0.5545,-0.555,-0.5721,-0.5737,-0.5752,-0.5796,-0.5823,-0.5829,-0.5834,-0.5969,-0.5969,-0.5968,0,0,0,0,0,0,-0.5118,-0.514,-0.5348,-0.5265,-0.5294,-0.5404,-0.545,-0.5469,-0.5505,-0.5616,-0.5636,-0.5561,-0.5722,-0.5743,-0.5805,-0.5804,-0.5833,-0.5839,-0.597,-0.5969,-0.5969,-0.5882,0,0,0,0,0,0,-0.5109,-0.5137,-0.515,-0.5265,-0.5298,-0.5398,-0.545,-0.5472,-0.5517,-0.5526,-0.5636,-0.5655,-0.5724,-0.5794,-0.5812,-0.5814,-0.5845,-0.5971,-0.597,-0.5969,-0.5885,-0.5878,-0.5872,0,0,0,0,0,-0.5099,-0.5118,-0.5151,-0.5174,-0.5317,-0.5398,-0.5417,-0.5496,-0.5517,-0.553,-0.5601,-0.5652,-0.5801,-0.5799,-0.5821,-0.5825,-0.5971,-0.597,-0.5969,-0.5888,-0.5879,-0.5872,0,0,0,0,0,0,-0.5001,-0.5135,-0.5172,-0.5229,-0.5301,-0.5416,-0.5436,-0.5484,-0.5552,-0.5557,-0.5652,-0.5676,-0.5729,-0.5783,-0.5779,-0.586,-0.5891,-0.5894,-0.5823,-0.5815,-0.5809,-0.5795,-0.585,0,0,0,0,0,-0.4985,-0.5041,-0.5155,-0.5194,-0.5228,-0.5325,-0.5364,-0.5419,-0.5497,-0.5528,-0.5604,-0.5678,-0.5742,-0.5781,-0.5846,-0.5893,-0.5919,-0.5906,-0.59,-0.5894,-0.5895,-0.5924,-0.5919,-0.5965,-0.5965,-0.5965,0,0,-0.4955,-0.5035,-0.5064,-0.5176,-0.5238,-0.5293,-0.535,-0.5406,-0.5447,-0.5537,-0.56,-0.5658,-0.5747,-0.5801,-0.5829,-0.5848,-0.5888,-0.5892,-0.5887,-0.5892,-0.5922,-0.5918,-0.5914,-0.5964,-0.5964,-0.5964,0,0,-0.4926,-0.4993,-0.5032,-0.5093,-0.5188,-0.5252,-0.5261,-0.5369,-0.5411,-0.5476,-0.5544,-0.5594,-0.5702,-0.5762,-0.5807,-0.58,-0.5849,-0.5818,-0.5784,-0.581,-0.5807,-0.5804,-0.5801,-0.5799,-0.5819,-0.5819,-0.5819,0,-0.4876,-0.4962,-0.5046,-0.5098,-0.5144,-0.5228,-0.5268,-0.5323,-0.5433,-0.5463,-0.5483,-0.5619,-0.5685,-0.5754,-0.5752,-0.5786,-0.5799,-0.5806,-0.58,-0.5799,-0.5797,-0.5796,-0.5794,-0.5815,-0.5815,-0.5816,-0.5816,0,-0.4895,-0.4953,-0.4973,-0.5078,-0.5127,-0.5172,-0.5263,-0.5302,-0.5352,-0.5414,-0.5479,-0.556,-0.5643,-0.5663,-0.5712,-0.5739,-0.5748,-0.5782,-0.5816,-0.5787,-0.5787,-0.5787,-0.5809,-0.581,-0.5811,-0.5813,0,0,-0.4811,-0.496,-0.4966,-0.5014,-0.5124,-0.517,-0.5218,-0.5299,-0.5331,-0.5403,-0.5446,-0.5535,-0.5567,-0.5618,-0.5675,-0.5698,-0.5686,-0.573,-0.5733,-0.5719,-0.572,-0.5693,-0.5691,-0.5719,-0.5719,-0.5719,-0.5713,0,-0.4798,-0.4891,-0.4967,-0.5031,-0.5085,-0.5164,-0.5207,-0.5277,-0.5336,-0.539,-0.5455,-0.5517,-0.5555,-0.5586,-0.5612,-0.5682,-0.5688,-0.5684,-0.5759,-0.5761,-0.5735,-0.5692,-0.5664,-0.5654,-0.5713,-0.5713,-0.5713,0,-0.4797,-0.4866,-0.4935,-0.5038,-0.5063,-0.51,-0.518,-0.5231,-0.5312,-0.5354,-0.5409,-0.5468,-0.5522,-0.555,-0.5625,-0.5621,-0.5656,-0.5695,-0.5696,-0.5707,-0.5735,-0.57,-0.5653,-0.5651,-0.5714,-0.5714,-0.5714,0,-0.4728,-0.4838,-0.4894,-0.4932,-0.5054,-0.5078,-0.5129,-0.5212,-0.5255,-0.5324,-0.5353,-0.5428,-0.5468,-0.5524,-0.5601,-0.5615,-0.5669,-0.5703,-0.5704,-0.5702,-0.5712,-0.571,-0.5669,-0.5734,-0.5734,-0.5734,-0.5734,0,-0.4706,-0.4745,-0.4864,-0.4898,-0.4944,-0.5031,-0.5073,-0.5132,-0.5204,-0.525,-0.5323,-0.5365,-0.5464,-0.5518,-0.5578,-0.5631,-0.5649,-0.5683,-0.5699,-0.5677,-0.5672,-0.5702,-0.5704,-0.5734,-0.5734,-0.5734,-0.5734,0,-0.4637,-0.4719,-0.4784,-0.4894,-0.4922,-0.4951,-0.5044,-0.508,-0.5142,-0.52,-0.5218,-0.5316,-0.5382,-0.5465,-0.5557,-0.5598,-0.5645,-0.5669,-0.5617,-0.5626,-0.5622,-0.5621,-0.5598,-0.56,-0.5663,-0.5662,-0.5662,0,-0.4618,-0.465,-0.4762,-0.4799,-0.4848,-0.4905,-0.495,-0.5037,-0.508,-0.5175,-0.5198,-0.527,-0.5333,-0.5435,-0.5514,-0.5585,-0.5611,-0.5598,-0.5622,-0.5599,-0.5611,-0.5608,-0.5611,-0.5592,-0.559,-0.559,-0.5589,0,-0.4575,-0.4614,-0.4675,-0.4751,-0.4802,-0.4865,-0.4932,-0.4957,-0.5057,-0.5102,-0.5171,-0.5219,-0.5313,-0.5384,-0.5465,-0.5518,-0.5569,-0.558,-0.5584,-0.5562,-0.5531,-0.5548,-0.56,-0.5581,-0.5582,-0.5582,-0.5583,-0.5583,-0.4531,-0.4562,-0.4646,-0.4712,-0.4771,-0.4832,-0.487,-0.4937,-0.4996,-0.508,-0.5128,-0.5195,-0.5275,-0.5389,-0.5439,-0.5493,-0.5512,-0.5518,-0.5519,-0.5519,-0.5512,-0.5522,-0.5508,-0.5508,-0.5509,-0.5509,-0.5509,0,-0.4492,-0.4549,-0.4609,-0.47,-0.4751,-0.4796,-0.4871,-0.4911,-0.497,-0.504,-0.51,-0.5178,-0.5247,-0.5331,-0.5404,-0.5431,-0.5456,-0.5447,-0.5446,-0.5457,-0.5491,-0.548,-0.5425,-0.5425,-0.5425,-0.5425,-0.5425,-0.5425,-0.4477,-0.4533,-0.4581,-0.4666,-0.4724,-0.4791,-0.483,-0.4886,-0.4942,-0.5027,-0.5084,-0.5138,-0.5214,-0.5294,-0.5358,-0.5381,-0.5405,-0.5388,-0.5418,-0.5448,-0.5455,-0.5462,-0.5453,-0.5392,-0.5392,-0.538,-0.538,-0.538]}]]